Theta_e
320 318 317 316 313 312 312 312 314 317 316 315 313 311 309 309 310 310 310 310 309 310 311 313 315 319 308 299 299 310 321 322 312 307 303 299 293 291 287 287 289 286 289 292 293 293 292
317 316 314 314 311 312 311 311 313 316 317 313 311 309 307 308 309 309 310 310 310 310 311 312 317 314 304 294 309 312 313 311 308 305 302 298 295 295 290 287 286 289 290 290 291 291 291
316 315 312 311 311 310 310 310 309 311 311 312 310 309 307 308 309 309 309 310 309 310 311 314 316 310 301 299 311 314 311 309 309 304 299 299 298 294 292 287 291 290 285 288 288 290 288
314 312 311 310 310 310 309 310 309 309 309 309 309 308 308 308 308 309 309 309 310 310 313 316 316 308 297 309 312 311 306 302 305 304 301 301 301 296 292 291 289 284 283 278 286 290 290
311 310 310 311 310 309 309 309 309 309 309 308 307 307 308 308 308 308 308 309 310 314 316 317 308 304 296 311 305 307 305 300 301 302 301 304 299 292 292 284 279 281 272 280 283 290 289
311 310 310 310 310 310 310 310 309 309 309 308 308 307 307 307 307 308 308 307 309 312 311 309 307 298 300 298 303 304 304 304 300 299 297 295 291 285 286 284 270 276 277 280 280 287 289
310 309 309 309 310 310 310 310 309 309 308 308 307 307 307 307 307 307 301 296 294 296 299 296 296 298 299 304 306 301 304 302 300 294 285 290 284 278 280 283 282 280 280 279 283 288 288
310 309 309 309 310 310 310 310 310 309 309 308 307 307 307 307 306 305 296 291 293 295 293 301 301 300 303 304 295 299 304 295 293 285 288 286 281 285 287 285 284 284 282 282 286 289 289
309 309 308 309 310 310 311 311 310 310 309 308 307 307 307 306 305 298 294 296 302 299 292 295 300 298 299 301 295 295 299 296 290 287 286 281 285 290 287 285 283 284 282 282 283 288 291
309 308 309 309 309 310 311 311 310 310 309 308 307 307 307 304 296 295 295 302 304 302 285 286 293 297 300 300 293 301 301 297 293 287 287 286 290 288 288 285 285 281 287 287 287 286 282
308 308 308 308 309 310 311 310 309 307 307 308 307 307 306 303 292 293 298 303 304 299 273 287 291 302 299 294 294 295 303 298 291 289 290 283 287 288 288 289 290 285 291 289 289 287 284
308 308 308 308 309 310 310 310 308 307 307 308 306 306 304 297 295 298 301 304 299 277 274 286 291 292 291 294 295 297 296 299 298 292 291 288 293 292 290 291 292 293 288 288 288 286 279
307 308 308 308 309 310 310 310 309 307 306 306 307 305 302 301 292 300 300 297 275 275 288 284 287 290 290 290 290 293 291 289 286 283 283 288 290 294 294 289 292 290 287 279 276 280 278
307 308 307 308 309 310 310 310 310 310 308 306 304 303 301 300 299 298 293 282 275 285 285 290 289 289 286 290 290 290 289 287 290 289 285 279 276 290 294 291 289 290 289 281 275 277 280
308 307 308 308 308 309 310 310 310 310 309 307 302 294 294 297 300 296 286 280 281 286 290 287 290 286 286 290 291 291 289 288 291 291 282 285 281 293 294 295 295 290 286 292 284 285 281
308 306 307 308 308 308 309 310 310 310 309 305 292 290 291 298 298 291 286 285 287 292 292 290 283 286 283 287 287 287 289 292 292 292 294 290 283 290 293 294 294 292 295 285 285 276 277
309 306 307 307 308 308 308 309 310 310 309 303 289 287 295 299 295 288 283 285 288 292 292 288 285 285 286 286 289 288 286 290 293 292 293 292 288 286 290 288 286 289 288 288 287 284 279
309 306 307 307 307 307 307 308 309 310 309 298 289 284 297 298 285 283 282 287 292 290 292 290 289 287 286 288 286 284 285 288 294 293 289 292 288 282 285 290 292 291 288 288 281 280 281
309 307 306 307 307 308 308 308 309 309 308 292 286 284 296 295 280 279 285 288 289 289 289 290 289 290 288 286 284 287 288 294 294 292 288 290 285 280 281 285 290 286 287 287 286 284 280
309 307 305 306 307 307 307 308 308 309 308 293 286 281 286 289 287 282 283 284 285 291 290 291 290 290 288 286 288 286 287 292 294 293 299 294 284 282 276 281 286 283 286 287 286 281 283
309 307 304 306 306 307 307 307 308 309 307 293 286 281 287 278 283 284 284 284 285 285 291 292 289 289 286 283 284 284 287 288 292 294 291 288 282 280 283 285 285 284 284 286 284 284 284
309 307 304 305 306 307 308 308 309 308 305 291 285 284 285 283 285 284 284 284 286 288 289 288 287 289 289 285 285 283 285 286 285 288 287 288 280 282 280 284 284 282 284 285 286 285 285
309 307 304 305 306 307 309 309 310 308 301 289 290 291 287 283 282 280 282 284 287 289 291 291 290 288 288 289 290 290 290 289 287 285 285 285 281 278 275 281 281 278 282 283 284 286 285
308 306 304 305 306 308 310 310 309 307 301 292 290 289 284 281 283 283 285 286 287 288 287 291 291 288 291 294 292 290 288 288 288 286 287 284 282 279 274 277 269 281 285 285 285 286 286
308 306 303 305 307 309 309 310 308 307 305 295 292 290 285 280 283 283 285 285 288 288 288 289 291 293 293 291 286 283 282 282 283 285 286 286 283 277 274 271 277 280 283 284 283 284 287
309 304 302 305 306 308 308 308 308 307 307 296 292 292 288 282 281 286 284 285 284 283 286 289 292 294 292 287 283 279 276 278 278 282 285 286 284 280 277 274 273 279 285 286 285 278 287
310 304 302 304 306 307 307 307 306 305 304 296 292 291 288 283 284 284 284 285 286 284 284 285 289 290 290 284 282 279 276 280 277 277 278 280 279 277 277 275 278 283 286 286 277 278 288
311 304 302 304 305 306 305 306 307 306 306 295 290 292 289 283 285 287 289 286 286 286 284 287 287 287 286 282 282 280 278 279 277 279 278 279 277 277 277 274 272 286 286 281 284 286 289
311 305 302 303 304 306 305 305 306 306 305 298 289 293 293 288 287 289 290 290 290 290 288 286 286 286 287 281 282 281 281 279 277 276 280 279 281 279 280 280 285 287 286 288 288 289 288
Wind_Speed
30 27 29 30 31 33 33 36 34 29 23 18 13 8 5 3 9 10 12 12 14 15 16 15 17 12 11 4 4 8 14 16 11 7 5 4 5 4 4 1 2 2 3 6 7 8 8
24 26 28 28 30 33 34 33 46 22 17 11 5 5 4 6 9 11 12 14 15 15 14 15 4 16 7 4 7 12 9 7 8 5 3 3 4 3 3 1 1 3 4 8 7 11 8
28 26 26 26 29 30 32 32 33 40 31 17 12 6 6 8 10 11 12 15 17 18 17 15 14 3 7 6 5 5 7 3 3 4 4 2 2 4 3 1 1 4 7 7 10 8 7
28 27 28 28 26 28 28 29 28 26 25 22 15 9 10 11 11 13 15 16 19 18 18 11 20 4 5 2 2 8 2 4 6 6 5 4 4 4 4 2 4 3 1 5 6 2 5
27 26 25 26 27 28 28 27 25 23 20 15 10 10 12 13 13 14 16 17 16 13 6 19 6 5 6 6 5 8 4 5 5 3 4 4 3 2 2 3 4 1 3 6 9 4 3
25 26 25 26 25 27 27 26 24 22 20 18 15 13 10 11 12 15 14 8 11 12 13 9 4 6 4 7 5 2 2 7 4 5 4 3 2 1 3 3 4 4 4 6 8 5 4
25 25 24 25 25 27 27 25 23 20 18 16 15 14 13 13 13 13 8 5 6 5 6 2 7 5 9 10 9 8 4 4 3 3 2 2 1 7 9 7 4 3 6 12 16 16 14
25 23 23 24 26 26 26 24 23 20 18 15 13 11 13 14 12 10 6 5 3 2 7 8 7 7 7 10 9 5 6 5 3 3 2 2 7 11 7 5 8 13 14 16 16 15 6
24 22 23 24 25 26 26 26 24 22 16 15 12 13 14 13 7 6 6 4 3 4 4 6 5 9 7 2 4 8 8 3 3 6 7 5 4 4 8 8 11 14 15 15 14 14 12
22 21 23 24 25 25 27 26 24 23 18 12 12 12 13 10 7 3 4 3 2 4 4 4 4 3 1 3 4 3 5 3 5 7 5 6 7 8 8 10 11 15 11 17 16 11 5
21 21 21 23 24 25 26 26 25 24 21 14 8 11 11 10 2 4 5 4 3 1 5 1 3 2 2 2 9 3 3 3 4 3 3 7 3 6 12 6 12 9 4 8 11 12 13
20 19 20 21 22 24 24 25 25 25 24 15 7 8 6 4 2 1 3 3 0 5 6 3 3 6 5 2 2 6 4 1 2 3 3 9 3 4 4 4 6 6 7 15 14 7 6
19 19 20 21 22 23 23 22 21 20 21 19 12 10 6 2 2 6 3 1 4 6 1 1 7 4 3 3 4 5 6 5 3 3 4 3 5 3 3 6 5 6 4 5 4 2 3
19 19 20 20 21 22 21 18 17 17 13 11 10 6 5 1 2 3 3 3 10 6 5 1 4 6 1 5 2 5 4 4 10 4 3 2 6 6 6 6 2 4 2 2 5 3 3
18 18 19 20 21 21 21 19 15 13 11 9 5 4 4 4 1 3 3 7 4 3 4 4 1 2 1 2 3 4 4 3 4 8 4 2 5 1 9 6 3 2 3 2 4 3 3
17 17 19 19 21 22 23 22 19 16 9 6 3 3 4 5 2 3 5 8 4 4 3 1 1 3 3 2 1 1 2 5 3 6 3 1 5 5 2 4 7 5 3 3 2 3 3
15 17 18 20 20 21 21 23 22 21 14 8 5 5 4 7 2 7 5 4 2 3 3 4 1 2 2 3 1 2 2 2 3 5 6 2 2 6 2 4 3 2 2 3 3 2 2
14 16 17 18 18 18 20 21 22 21 15 7 4 4 5 6 7 3 3 5 5 4 2 1 2 2 3 4 2 2 2 3 1 7 6 6 2 4 6 2 2 2 4 3 2 1 1
13 14 16 16 18 18 19 20 21 20 16 3 3 2 4 5 5 4 5 4 2 9 6 6 5 4 3 3 2 3 3 2 1 3 2 3 2 5 8 6 4 4 6 5 2 1 2
12 14 15 17 17 18 19 19 21 20 15 4 4 4 6 6 1 2 5 5 6 5 4 4 4 2 4 6 6 3 6 3 5 3 2 2 2 1 4 5 3 7 13 7 1 3 1
10 12 14 16 18 19 19 18 18 19 13 4 4 1 1 3 5 4 3 3 5 8 5 7 6 6 1 4 4 5 5 6 4 7 3 2 1 1 3 3 3 2 6 12 8 2 4
9 11 13 15 18 20 18 17 16 15 9 4 4 5 3 1 3 5 6 5 6 6 6 7 4 7 7 4 1 2 1 3 1 6 3 3 1 1 4 5 6 4 9 8 6 6 5
8 10 12 14 17 20 19 17 12 8 6 2 2 1 5 2 2 3 3 4 5 7 1 2 4 4 5 2 5 7 6 4 4 2 2 2 3 3 4 4 6 4 4 4 2 2 3
6 10 12 13 16 19 21 12 5 6 6 2 0 1 4 2 3 0 2 2 4 5 2 5 4 4 4 7 3 3 4 5 2 1 1 1 3 3 4 5 4 5 2 1 2 3 2
3 8 10 12 16 17 18 9 4 6 8 4 1 3 2 4 5 2 4 4 6 5 3 2 3 3 5 5 5 4 4 5 2 2 3 2 3 2 3 2 6 2 4 5 4 4 4
5 5 8 9 12 12 12 8 6 7 8 4 2 2 3 3 5 8 4 2 3 4 6 4 5 4 4 3 4 4 3 2 4 9 2 4 4 4 1 2 5 4 2 2 3 5 5
6 5 6 8 9 8 9 8 7 7 7 4 1 3 4 2 4 3 4 6 3 0 3 4 6 7 4 4 3 0 4 2 4 4 4 3 3 2 2 3 7 4 1 0 4 6 4
9 7 6 6 7 4 4 6 8 7 4 4 1 1 4 1 4 4 4 5 4 2 2 4 3 3 3 4 1 2 1 3 3 4 3 1 1 2 1 1 6 4 3 5 6 1 3
10 10 8 5 5 6 4 4 8 7 4 4 1 1 2 3 4 1 5 3 4 5 5 1 2 3 4 3 1 1 2 2 1 4 2 4 6 3 7 6 4 5 5 3 4 4 3
Wind_Direction
349 8 348 358 2 352 346 349 318 291 258 247 241 236 282 327 319 325 316 318 316 308 313 308 304 152 108 82 306 323 135 168 102 109 148 123 103 117 146 187 353 214 279 293 299 291 276
4 360 358 360 360 352 351 355 358 292 253 239 235 320 11 344 340 329 323 313 314 308 302 300 314 135 109 116 312 311 96 79 106 98 101 101 161 145 127 104 146 342 309 287 278 275 271
1 3 355 359 3 8 10 10 19 21 26 57 40 344 20 359 342 337 322 318 311 306 297 278 167 71 81 131 309 21 53 80 92 100 101 36 98 93 104 56 11 329 322 305 258 260 244
4 4 11 9 5 2 8 14 19 25 32 35 33 7 4 4 346 335 323 320 308 301 290 219 155 103 105 128 56 86 14 47 67 67 93 58 93 107 124 149 0 328 0 341 286 312 253
12 11 11 8 6 4 6 8 7 9 17 23 26 358 9 349 340 329 325 322 321 302 138 134 118 92 129 168 99 163 155 118 95 76 80 72 47 111 70 117 357 41 258 244 297 227 252
9 8 6 5 5 7 6 4 5 6 6 9 9 4 356 342 344 331 331 342 347 33 85 79 54 108 160 153 134 183 96 125 104 94 50 62 61 70 162 166 223 214 247 266 251 299 189
8 6 9 4 7 4 4 0 358 359 1 4 2 355 347 352 354 355 6 6 26 24 23 54 135 61 131 122 129 188 120 104 85 60 185 270 188 223 218 211 222 323 278 276 275 275 284
11 6 9 4 6 7 1 355 353 354 360 358 356 354 351 1 8 4 50 69 106 246 59 56 65 80 120 152 142 142 138 127 131 206 131 84 251 246 199 212 239 255 268 268 277 257 243
10 4 7 1 6 6 1 357 351 346 348 353 353 2 5 360 94 40 80 86 170 161 69 45 43 100 131 139 96 161 148 134 185 204 203 185 233 50 194 229 234 245 250 266 263 296 270
11 2 3 1 3 5 7 6 3 1 355 342 355 8 3 4 51 328 49 343 196 174 94 13 69 59 193 95 85 113 170 189 217 223 197 240 238 232 244 232 205 266 236 247 267 284 287
8 3 4 1 2 7 16 19 20 7 3 358 19 24 18 51 131 39 11 342 28 346 73 65 36 67 252 197 137 182 197 290 259 217 191 256 266 229 239 244 192 243 268 270 267 269 299
6 2 0 5 1 6 20 33 33 25 21 21 54 45 36 36 50 43 356 99 118 46 72 124 146 148 172 29 105 137 180 203 286 317 255 253 274 285 231 293 239 304 304 277 264 248 250
3 360 359 5 0 8 17 36 43 34 35 36 40 35 43 54 343 324 329 161 66 60 307 36 97 157 121 139 152 172 165 186 230 224 236 263 232 258 213 275 214 204 262 306 335 216 254
3 359 360 3 360 3 11 21 40 32 21 36 39 20 340 43 322 16 40 61 59 40 68 128 108 111 116 183 173 173 155 227 236 221 287 294 322 195 176 228 298 218 222 275 296 305 312
3 355 355 358 0 357 1 8 16 34 22 14 60 344 304 264 286 118 101 53 77 21 27 74 94 184 132 184 215 195 203 234 228 187 212 306 274 226 205 212 197 66 242 230 269 222 238
356 357 353 358 356 359 357 358 358 360 22 67 94 9 282 295 305 94 54 74 70 42 17 157 168 187 178 114 122 256 222 187 229 166 173 11 295 207 280 181 246 237 356 291 254 302 320
353 355 354 354 357 355 355 354 355 352 352 131 64 31 263 312 68 45 48 46 343 281 225 203 306 138 111 155 152 227 236 221 241 145 169 259 274 299 291 200 215 167 263 270 278 248 319
352 353 353 351 352 351 350 353 352 350 352 14 89 33 312 1 48 33 34 337 325 288 316 319 226 76 166 147 180 261 286 232 100 142 182 228 267 279 250 349 27 253 269 181 242 209 346
347 352 346 346 347 347 347 346 345 354 1 56 68 226 321 50 65 348 318 335 307 357 360 17 8 24 14 76 69 45 334 281 235 178 228 175 323 319 346 3 5 9 313 240 221 44 39
342 347 344 340 342 345 345 343 342 347 4 79 77 37 332 37 62 43 353 354 348 339 314 345 328 360 51 39 27 27 347 316 347 1 140 121 95 167 173 245 298 328 345 5 111 80 119
333 341 343 340 339 341 341 340 337 338 2 86 52 167 165 354 349 6 20 347 354 5 344 15 19 19 296 50 27 21 333 334 347 6 79 97 90 56 260 295 297 285 341 21 53 317 49
323 337 340 343 339 338 336 324 324 334 346 72 122 132 59 27 327 9 353 0 12 331 11 343 41 338 21 82 120 239 14 35 326 325 43 346 227 57 306 345 357 356 6 17 32 43 62
314 331 339 343 340 335 327 323 328 341 10 72 326 19 113 307 37 53 321 322 337 344 22 35 306 329 8 348 237 239 218 255 254 306 323 70 105 49 275 349 337 346 330 353 334 36 155
299 324 336 342 341 340 332 335 344 24 62 106 202 13 78 108 85 176 337 324 310 317 263 310 348 353 316 310 247 257 247 259 276 42 184 119 112 126 247 356 20 244 265 235 138 292 308
262 312 331 341 343 353 349 3 45 36 40 95 26 36 13 119 146 16 353 320 318 317 339 287 283 246 315 347 4 352 335 350 332 305 355 81 113 48 103 178 279 238 202 188 185 260 196
237 288 316 335 347 2 6 9 39 35 31 66 71 108 59 113 237 146 134 340 338 328 336 300 316 311 33 58 39 352 308 300 315 332 66 59 64 112 105 79 223 247 241 148 154 272 196
226 242 293 318 344 13 43 38 42 42 42 85 8 63 79 74 263 161 167 159 157 61 270 302 332 348 15 28 39 328 286 272 314 312 335 339 1 141 187 244 289 253 216 292 89 243 179
219 219 251 293 329 3 50 23 2 7 31 103 254 104 117 153 270 228 181 150 137 151 188 286 7 341 12 45 40 298 251 280 331 255 299 246 357 255 151 284 299 176 63 164 230 283 176
215 211 233 249 298 336 298 342 348 357 42 104 81 320 124 137 237 273 284 252 178 163 146 284 237 240 196 96 182 197 297 325 205 289 319 281 188 221 183 227 250 223 225 236 190 190 218